Moffett NAS, CA

3:11 PM PST on November 23, 2017 (GMT -0800)
Moffett Federal Air Field

Weather History for KNUQ - December, 2012

Change the Weather History Date:

Thursday, December 20, 2012

  Actual Average Record
Temperature  
Mean Temperature 48 °F 50 °F  
Max Temperature 59 °F 58 °F 76 °F (1969)
Min Temperature 37 °F 43 °F 32 °F (1951)
Degree Days  
Heating Degree Days 17    
Month to date heating degree days 258  
Since 1 July heating degree days 588  
Cooling Degree Days 0    
Month to date cooling degree days 0  
Year to date cooling degree days 321  
Moisture  
Dew Point 32 °F    
Average Humidity 53    
Maximum Humidity 63    
Minimum Humidity 43    
Precipitation  
Precipitation 0.00 in 0.09 in 0.91 in (1970)
Month to date precipitation 1.66 1.52  
Year to date precipitation 10.66 13.64  
Since 1 July precipitation 5.15  
Sea Level Pressure  
Sea Level Pressure 30.14 in    
Wind  
Wind Speed 8 mph (SE)    
Max Wind Speed 17 mph    
Max Gust Speed 25 mph    
Visibility 10 miles    
Events      
T = Trace of Precipitation, MM = Missing Value Source: NWS Daily Summary

Daily Weather History Graph

Daily Weather History Graph

Search for Another Location

Airport or City:

Trip Planner

Search our weather history database for the weather conditions in past years. The results will help you decide how hot, cold, wet, or windy it might be!

Date:

Astronomy

Dec. 20, 2012 Rise Set
Actual Time 7:18 AM PST 4:53 PM PST
Civil Twilight 6:49 AM PST 5:22 PM PST
Nautical Twilight 6:16 AM PST 5:55 PM PST
Astronomical Twilight 5:44 AM PST 6:27 PM PST
Moon 12:08 PM PST (12/20) 12:17 AM PST (12/20)
Length of Visible Light 10h 33m
Length of Day
9h 34m
First Quarter, 56% of the Moon is Illuminated
Dec 20
First Quarter
Dec 28
Full
Jan 4
Last Quarter
Jan 11
New
Jan 18
First Quarter

Hourly Weather History & Observations

Time (PST) Temp. Windchill Dew Point Humidity Pressure Visibility Wind Dir Wind Speed Gust Speed Precip Events Conditions
12:56 AM 42.1 °F 38.4 °F 25.0 °F 51% 30.24 in 10.0 mi South 5.8 mph - N/A   Clear
1:56 AM 39.9 °F - 27.0 °F 60% 30.23 in 10.0 mi Calm Calm - N/A   Clear
2:56 AM 39.0 °F 35.7 °F 26.1 °F 60% 30.22 in 10.0 mi SE 4.6 mph - N/A   Clear
3:56 AM 42.1 °F 38.4 °F 26.1 °F 53% 30.22 in 10.0 mi SSE 5.8 mph - N/A   Clear
4:56 AM 42.1 °F 38.4 °F 25.0 °F 51% 30.22 in 10.0 mi SSE 5.8 mph - N/A   Clear
5:56 AM 39.0 °F 34.8 °F 25.0 °F 57% 30.21 in 10.0 mi SE 5.8 mph - N/A   Clear
6:56 AM 39.9 °F 35.8 °F 25.0 °F 55% 30.22 in 10.0 mi SE 5.8 mph - N/A   Clear
7:56 AM 42.1 °F 37.1 °F 26.1 °F 53% 30.21 in 10.0 mi ESE 8.1 mph - N/A   Clear
8:56 AM 46.0 °F 41.4 °F 27.0 °F 47% 30.21 in 10.0 mi ESE 9.2 mph - N/A   Clear
9:56 AM 50.0 °F - 30.0 °F 46% 30.21 in 10.0 mi ESE 9.2 mph - N/A   Clear
10:56 AM 55.0 °F - 35.1 °F 47% 30.17 in 10.0 mi SE 11.5 mph 18.4 mph N/A   Clear
11:56 AM 57.0 °F - 36.0 °F 45% 30.14 in 10.0 mi SSE 10.4 mph - N/A   Clear
12:56 PM 57.9 °F - 36.0 °F 44% 30.10 in 10.0 mi SE 12.7 mph 19.6 mph N/A   Clear
1:56 PM 59.0 °F - 37.9 °F 46% 30.08 in 10.0 mi SE 11.5 mph 21.9 mph N/A   Mostly Cloudy
2:56 PM 57.0 °F - 37.0 °F 47% 30.07 in 10.0 mi SE 9.2 mph 18.4 mph N/A   Overcast
3:56 PM 57.0 °F - 36.0 °F 45% 30.06 in 10.0 mi SE 12.7 mph 18.4 mph N/A   Overcast
4:56 PM 55.0 °F - 35.1 °F 47% 30.05 in 10.0 mi SE 5.8 mph 19.6 mph N/A   Clear
5:56 PM 55.0 °F - 33.1 °F 43% 30.06 in 10.0 mi SE 9.2 mph - N/A   Scattered Clouds
6:56 PM 53.1 °F - 32.0 °F 45% 30.06 in 10.0 mi ESE 11.5 mph - N/A   Partly Cloudy
7:56 PM 53.1 °F - 34.0 °F 48% 30.07 in 10.0 mi ESE 12.7 mph 20.7 mph N/A   Scattered Clouds
8:56 PM 53.1 °F - 36.0 °F 52% 30.06 in 10.0 mi SSE 10.4 mph - N/A   Clear
9:56 PM 52.0 °F - 36.0 °F 54% 30.06 in 10.0 mi ESE 12.7 mph - N/A   Clear
10:56 PM 52.0 °F - 39.0 °F 61% 30.05 in 10.0 mi SSE 4.6 mph - N/A   Clear
11:56 PM 53.1 °F - 39.9 °F 61% 30.03 in 10.0 mi South 6.9 mph 16.1 mph N/A   Clear